Regional Weather Roundup
Issued by NWS Spokane, WA

Home | Current Version | Previous Version | Text Only | Print | Product List | Glossary On
Versions: 1 2 3 4 5 6 7 8 9 10 11 12 13 14 15 16 17 18 19 20 21 22 23 24 25 26 27 28 29 30 31 32 33 34 35 36 37 38 39 40 41 42 43 44 45 46 47 48 49 50
001
NZUS01 KOTX 270110
RWROTX

Eastern Washington/Northern Idaho Roundup
National Weather Service, Spokane WA
600 PM PDT SUN MAR 26 2017

Note: "fair" indicated few or no clouds below 12,000 feet with no
significant weather and/or obstructions to visibility.

...Northeast Washington and Northern Idaho Panhandle...

CITY           SKY/WX    TMP DP  RH WIND       PRES   REMARKS
Spokane Intl   CLOUDY    44  38  79 SE5       29.81F
Spokane Downto CLOUDY    46  40  79 CALM      29.82F
Coeur d Alene  LGT RAIN  43  40  89 SW6       29.84S
Deer Park      CLOUDY    43  40  89 CALM      29.83F
Sandpoint      DRIZZLE   46  34  61 E5        29.83R
Bonners Ferry  MOCLDY    46  32  57 NW5       29.82S

...Southeast Washington and southern Idaho Panhandle...

CITY           SKY/WX    TMP DP  RH WIND       PRES   REMARKS
Walla Walla    LGT RAIN  50  44  80 CALM      29.82S
Pullman/Moscow CLOUDY    44  39  82 E7        29.83F
Lewiston       CLOUDY    49  42  77 E6        29.82F
Lowell           N/A     47  43  86 CALM      29.87S
Grangeville    FAIR      45  36  70 SE7       29.82S

...Columbia Basin...

CITY           SKY/WX    TMP DP  RH WIND       PRES   REMARKS
Ephrata        LGT RAIN  45  35  68 S7        29.81F
Moses Lake     CLOUDY    46  38  73 S5        29.82F
Pasco          LGT RAIN  50  44  80 SW3       29.84S
Richland       LGT RAIN  49  46  86 CALM      29.84S
Hermiston      LGT RAIN  49  47  93 NE6       29.82S
Pendleton      LGT RAIN  49  44  83 SW5       29.81S

...East Slopes Cascades...

CITY           SKY/WX    TMP DP  RH WIND       PRES   REMARKS
The Dalles     CLOUDY    47  45  93 N7        29.81F
Yakima         LGT RAIN  47  43  86 CALM      29.81F FOG
Ellensburg     LGT RAIN  43  38  82 E9        29.79F
Wenatchee      LGT RAIN  42  38  85 CALM      29.81F
Omak           CLOUDY    43  37  79 CALM      29.82F
Sunnyside      LGT RAIN  46  43  87 E6        29.82S

...Southern British Columbia...

CITY           SKY/WX    TMP DP  RH WIND       PRES   REMARKS
Penticton      CLOUDY    45  37  76 S10       29.79F
Castlegar      LGT RAIN  43  39  87 SE2       29.84F
Cranbrook      CLOUDY    45  27  49 SW8       29.80S
Osoyoos          N/A     45  37  76 S5          N/A
Creston          N/A     48  28  46 W2          N/A

...Western Montana...

CITY           SKY/WX    TMP DP  RH WIND       PRES   REMARKS
Kalispell      CLOUDY    49  29  46 S6        29.81F
Missoula       CLOUDY    51  28  41 N6        29.82S

...Neighboring Cities...

CITY           SKY/WX    TMP DP  RH WIND       PRES   REMARKS
Seattle        CLOUDY    48  44  86 SE7       29.74F
Portland       LGT RAIN  46  46 100 SE12      29.79R
Boise          PTSUNNY   50  35  56 E12       29.90F
Great Falls    CLOUDY    52  19  27 CALM      29.80F
Calgary        MOCLDY    46  18  31 SE16      29.73S



USA.gov is the U.S. government's official web portal to all federal, state and local government web resources and services.